Weather History for Goshen, IN

Change the Weather History Date:

Tuesday, April 1, 2014

  Actual Average Record
Temperature  
Mean Temperature 50 °F -  
Max Temperature 57 °F 53 °F 81 °F (1981)
Min Temperature 45 °F 35 °F 19 °F (1964)
Degree Days  
Heating Degree Days 15    
Moisture  
Dew Point 35 °F    
Average Humidity 56    
Maximum Humidity 77    
Minimum Humidity 45    
Precipitation  
Precipitation 0.07 in - - ()
Sea Level Pressure  
Sea Level Pressure 29.88 in    
Wind  
Wind Speed 18 mph (SW)    
Max Wind Speed 29 mph    
Max Gust Speed 38 mph    
Visibility 10 miles    
Events Rain    
Averages and records for this station are not official NWS values.
T = Trace of Precipitation, MM = Missing Value Source: NWS Daily Summary

Daily Weather History Graph

Daily Weather History Graph

Search for Another Location

Airport:

Trip Planner

Search our weather history database for the weather conditions in past years. The results will help you decide how hot, cold, wet, or windy it might be!

Date:

Astronomy

Apr. 01, 2014 Rise Set
Actual Time 7:26 AM EDT 8:08 PM EDT
Civil Twilight 6:58 AM EDT 8:36 PM EDT
Nautical Twilight 6:25 AM EDT 9:09 PM EDT
Astronomical Twilight 5:50 AM EDT 9:44 PM EDT
Moon 8:26 AM EDT (4/1) 10:32 PM EDT (4/1)
Length of Visible Light 13h 38m
Length of Day
12h 42m
Waxing Crescent, 4% of the Moon is Illuminated
Apr 1
Waxing Crescent
Apr 7
First Quarter
Apr 15
Full
Apr 22
Last Quarter
Apr 29
New

Hourly Weather History & Observations

Time (EDT) Temp. Windchill Dew Point Humidity Pressure Visibility Wind Dir Wind Speed Gust Speed Precip Events Conditions
12:53 AM 54.0 °F - 37.0 °F 53% 29.87 in 10.0 mi SE 13.8 mph - 0.00 in Rain Light Rain
1:53 AM 55.9 °F - 37.0 °F 49% 29.90 in 10.0 mi SSW 24.2 mph 38.0 mph 0.00 in Rain Light Rain
2:53 AM 51.1 °F - 44.1 °F 77% 29.83 in 10.0 mi SE 16.1 mph - 0.07 in   Overcast
3:53 AM 52.0 °F - 42.1 °F 69% 29.79 in 10.0 mi SSE 15.0 mph - N/A   Overcast
4:53 AM 55.0 °F - 39.9 °F 57% 29.77 in 10.0 mi South 16.1 mph 23.0 mph N/A   Overcast
5:53 AM 54.0 °F - 39.9 °F 59% 29.75 in 10.0 mi South 13.8 mph - N/A   Overcast
6:53 AM 53.1 °F - 39.9 °F 61% 29.75 in 10.0 mi South 11.5 mph - N/A   Overcast
7:53 AM 54.0 °F - 42.1 °F 64% 29.75 in 10.0 mi SSW 20.7 mph 28.8 mph N/A   Mostly Cloudy
8:53 AM 51.1 °F - 43.0 °F 74% 29.78 in 10.0 mi West 17.3 mph - N/A   Overcast
9:00 AM 50.0 °F - 39.9 °F 68% 29.78 in 10.0 mi West 17.3 mph 26.5 mph N/A   Overcast
9:53 AM 48.9 °F - 35.1 °F 59% 29.81 in 10.0 mi WSW 17.3 mph 21.9 mph N/A   Overcast
10:53 AM 48.0 °F - 30.9 °F 52% 29.83 in 10.0 mi WSW 21.9 mph 32.2 mph N/A   Clear
11:53 AM 48.0 °F - 30.0 °F 50% 29.85 in 10.0 mi WSW 24.2 mph 32.2 mph N/A   Clear
12:53 PM 46.0 °F 37.4 °F 28.9 °F 51% 29.86 in 10.0 mi WSW 25.3 mph 34.5 mph N/A   Partly Cloudy
1:53 PM 46.9 °F - 28.9 °F 50% 29.88 in 10.0 mi SW 27.6 mph 33.4 mph N/A   Scattered Clouds
2:53 PM 48.0 °F - 30.0 °F 50% 29.90 in 10.0 mi WSW 21.9 mph 32.2 mph N/A   Scattered Clouds
3:53 PM 51.1 °F - 30.9 °F 46% 29.90 in 10.0 mi West 26.5 mph 34.5 mph N/A   Partly Cloudy
4:53 PM 52.0 °F - 32.0 °F 47% 29.91 in 10.0 mi WSW 23.0 mph 32.2 mph N/A   Clear
5:53 PM 52.0 °F - 30.9 °F 45% 29.93 in 10.0 mi West 28.8 mph 38.0 mph N/A   Clear
6:53 PM 50.0 °F - 30.9 °F 48% 29.95 in 10.0 mi West 18.4 mph - N/A   Clear
7:53 PM 48.9 °F - 30.9 °F 50% 29.98 in 10.0 mi West 18.4 mph - N/A   Clear
8:53 PM 46.0 °F 40.2 °F 30.0 °F 54% 30.01 in 10.0 mi West 12.7 mph - N/A   Clear
9:53 PM 45.0 °F 39.3 °F 30.9 °F 58% 30.05 in 10.0 mi WSW 11.5 mph - N/A   Clear
10:53 PM 45.0 °F 38.9 °F 30.9 °F 58% 30.07 in 10.0 mi West 12.7 mph - N/A   Mostly Cloudy
11:53 PM 45.0 °F 39.7 °F 30.9 °F 58% 30.08 in 10.0 mi WSW 10.4 mph - N/A   Overcast